Terminal Aerodrome Forecast
Issued by NWS New Orleans/Baton Rouge, LA

Home | Current Version | Previous Version | Text Only | Print | Product List | Glossary On
Versions: 1 2 3 4 5 6 7 8 9 10 11 12 13 14 15 16 17 18 19 20 21 22 23 24 25 26 27 28 29 30 31 32
000
FTUS44 KLIX 170500
TAFNEW
TAF
KNEW 170528Z 1706/1806 01011KT P6SM SCT011
     FM171000 34008KT P6SM SCT050
     FM171400 36005KT P6SM SCT025 BKN050
     FM171700 36005KT P6SM SCT025 BKN070 PROB30 1718/1723 VRB15KT
      2SM TSRA BKN025CB=

USA.gov is the U.S. government's official web portal to all federal, state and local government web resources and services.